sat.trackr.live / text

‹ back to catalog

RASSVET-3 13

NORAD 68372 · 2026-061N

PAYLOAD ACTIVE UNKNOWN

§ Identity

Operator
Country
CIS
Launch date
2026-03-23
Launch site
PLMSC
Launch vehicle
Mass (kg)
RCS (m²)

External: N2YO · Heavens-Above · Gunter

§ Orbital elements

Epoch: 2026-09-19T07:52:32.689632Z

Period
94.81 min
Inclination
82.2929°
Eccentricity
0.0001560
Mean motion
15.18898764 rev/d
Perigee alt
508.1 km
Apogee alt
510.2 km
Semi-major
6,887.3 km
B*
1.2455e-4
RAAN
278.3112°
Arg perigee
106.0439°
Mean anomaly
254.0967°
Rev number
2,772

§ Raw data

RASSVET-3 131 68372U 26061N   26262.32815613  .00002627  00000+0  12455-3 0  99942 68372  82.2929 278.3112 0001560 106.0439 254.0967 15.18898764 27727

JSON: /api/v1/satellites/68372 · /tle

For live sub-satellite position, see the globe view (requires WebGL).

§ Visibility from observer

Set your observer location to see the next 7 days of passes ≥ 10°. The values pass through the URL so the page stays shareable.

No JS? Fill the form by hand. The geolocation button needs JavaScript.